Weather History for Barnwell, SC

Change the Weather History Date:

Tuesday, October 30, 2012

  Actual Average (KOGB) Record (KOGB)
Temperature  
Mean Temperature 53 °F 61 °F  
Max Temperature 60 °F 73 °F 85 °F (1984)
Min Temperature 46 °F 49 °F 28 °F (1976)
Degree Days  
Heating Degree Days 12 6  
Month to date heating degree days 81  
Since 1 July heating degree days 85  
Cooling Degree Days 0 1  
Month to date cooling degree days 91  
Year to date cooling degree days 2085  
Growing Degree Days 3 (Base 50)    
Moisture  
Dew Point 28 °F    
Average Humidity 42    
Maximum Humidity 58    
Minimum Humidity 27    
Precipitation  
Precipitation 0.00 in 0.07 in 2.72 in (1959)
Month to date precipitation 3.32  
Year to date precipitation 40.42  
Sea Level Pressure  
Sea Level Pressure 29.64 in    
Wind  
Wind Speed 10 mph (WSW)    
Max Wind Speed 20 mph    
Max Gust Speed 28 mph    
Visibility 10 miles    
Events      
T = Trace of Precipitation, MM = Missing Value Source: NWS Daily Summary

Daily Weather History Graph

Daily Weather History Graph

Search for Another Location

Airport:

Trip Planner

Search our weather history database for the weather conditions in past years. The results will help you decide how hot, cold, wet, or windy it might be!

Date:

Astronomy

Oct. 30, 2012 Rise Set
Actual Time 7:42 AM EDT 6:35 PM EDT
Civil Twilight 7:17 AM EDT 7:00 PM EDT
Nautical Twilight 6:47 AM EDT 7:30 PM EDT
Astronomical Twilight 6:18 AM EDT 7:58 PM EDT
Moon 7:08 PM EDT (10/30) 8:24 AM EDT (10/30)
Length of Visible Light 11h 43m
Length of Day
10h 52m
Full, 99% of the Moon is Illuminated
Oct 30
Full
Nov 6
Last Quarter
Nov 13
New
Nov 20
First Quarter
Nov 28
Full

Hourly Weather History & Observations

Time (EDT) Temp. Windchill Dew Point Humidity Pressure Visibility Wind Dir Wind Speed Gust Speed Precip Events Conditions
12:15 AM 48.2 °F - 32.0 °F 54% 29.64 in 10.0 mi West 5.8 mph - N/A   Scattered Clouds
12:35 AM 48.2 °F - 33.8 °F 58% 29.63 in 10.0 mi West 8.1 mph - N/A   Clear
1:15 AM 48.2 °F - 32.0 °F 54% 29.62 in 10.0 mi West 6.9 mph - N/A   Partly Cloudy
1:35 AM 48.2 °F - 32.0 °F 54% 29.62 in 10.0 mi West 8.1 mph - N/A   Clear
1:55 AM 48.2 °F - 32.0 °F 54% 29.61 in 10.0 mi West 6.9 mph - N/A   Clear
2:15 AM 48.2 °F - 32.0 °F 54% 29.61 in 10.0 mi West 10.4 mph - N/A   Clear
2:35 AM 48.2 °F - 32.0 °F 54% 29.60 in 10.0 mi West 10.4 mph - N/A   Mostly Cloudy
2:55 AM 48.2 °F - 30.2 °F 50% 29.60 in 10.0 mi West 9.2 mph - N/A   Scattered Clouds
3:15 AM 48.2 °F - 30.2 °F 50% 29.60 in 10.0 mi West 9.2 mph - N/A   Scattered Clouds
3:35 AM 48.2 °F - 30.2 °F 50% 29.59 in 10.0 mi West 8.1 mph - N/A   Mostly Cloudy
3:55 AM 48.2 °F - 30.2 °F 50% 29.59 in 10.0 mi WSW 8.1 mph - N/A   Scattered Clouds
4:15 AM 48.2 °F - 30.2 °F 50% 29.58 in 10.0 mi WSW 6.9 mph - N/A   Scattered Clouds
4:35 AM 48.2 °F - 30.2 °F 50% 29.58 in 10.0 mi West 9.2 mph - N/A   Mostly Cloudy
4:55 AM 46.4 °F 41.9 °F 28.4 °F 50% 29.58 in 10.0 mi WSW 9.2 mph - N/A   Overcast
5:15 AM 46.4 °F 41.9 °F 28.4 °F 50% 29.58 in 10.0 mi WSW 9.2 mph - N/A   Overcast
6:15 AM 46.4 °F 41.9 °F 28.4 °F 50% 29.59 in 10.0 mi WSW 9.2 mph - N/A   Scattered Clouds
6:35 AM 46.4 °F 41.9 °F 28.4 °F 50% 29.59 in 10.0 mi WSW 9.2 mph - N/A   Partly Cloudy
6:55 AM 46.4 °F 41.1 °F 28.4 °F 50% 29.59 in 10.0 mi West 11.5 mph - N/A   Partly Cloudy
7:15 AM 46.4 °F 41.5 °F 28.4 °F 50% 29.59 in 10.0 mi WSW 10.4 mph 17.3 mph N/A   Clear
7:35 AM 46.4 °F 41.1 °F 30.2 °F 53% 29.59 in 10.0 mi WSW 11.5 mph 17.3 mph N/A   Partly Cloudy
7:55 AM 46.4 °F 41.9 °F 30.2 °F 53% 29.59 in 10.0 mi WSW 9.2 mph - N/A   Clear
8:15 AM 46.4 °F 41.1 °F 30.2 °F 53% 29.60 in 10.0 mi WSW 11.5 mph 17.3 mph N/A   Clear
8:35 AM 46.4 °F 41.9 °F 30.2 °F 53% 29.60 in 10.0 mi WSW 9.2 mph - N/A   Scattered Clouds
8:55 AM 46.4 °F 42.4 °F 32.0 °F 57% 29.61 in 10.0 mi WSW 8.1 mph - N/A   Partly Cloudy
9:15 AM 46.4 °F 41.9 °F 32.0 °F 57% 29.61 in 10.0 mi WSW 9.2 mph - N/A   Clear
9:35 AM 46.4 °F 41.1 °F 32.0 °F 57% 29.61 in 10.0 mi WSW 11.5 mph - N/A   Clear
9:55 AM 48.2 °F - 32.0 °F 54% 29.61 in 10.0 mi WSW 9.2 mph - N/A   Clear
10:15 AM 48.2 °F - 32.0 °F 54% 29.61 in 10.0 mi WSW 12.7 mph 19.6 mph N/A   Clear
10:35 AM 50.0 °F - 32.0 °F 50% 29.62 in 10.0 mi West 12.7 mph 19.6 mph N/A   Clear
10:55 AM 50.0 °F - 32.0 °F 50% 29.62 in 10.0 mi West 11.5 mph 20.7 mph N/A   Clear
11:15 AM 51.8 °F - 32.0 °F 47% 29.62 in 10.0 mi West 12.7 mph 23.0 mph N/A   Clear
11:35 AM 51.8 °F - 32.0 °F 47% 29.62 in 10.0 mi West 9.2 mph 18.4 mph N/A   Clear
11:55 AM 53.6 °F - 32.0 °F 44% 29.63 in 10.0 mi WSW 12.7 mph 23.0 mph N/A   Partly Cloudy
12:15 PM 55.4 °F - 30.2 °F 38% 29.63 in 10.0 mi West 13.8 mph 25.3 mph N/A   Clear
12:35 PM 55.4 °F - 30.2 °F 38% 29.62 in 10.0 mi WSW 16.1 mph 24.2 mph N/A   Clear
12:55 PM 55.4 °F - 28.4 °F 36% 29.62 in 10.0 mi WSW 18.4 mph 23.0 mph N/A   Clear
1:15 PM 55.4 °F - 28.4 °F 36% 29.61 in 10.0 mi WSW 17.3 mph 25.3 mph N/A   Clear
1:35 PM 55.4 °F - 28.4 °F 36% 29.61 in 10.0 mi West 15.0 mph 25.3 mph N/A   Clear
1:55 PM 57.2 °F - 26.6 °F 31% 29.61 in 10.0 mi West 18.4 mph 26.5 mph N/A   Clear
2:15 PM 57.2 °F - 26.6 °F 31% 29.60 in 10.0 mi West 11.5 mph 24.2 mph N/A   Clear
2:35 PM 57.2 °F - 26.6 °F 31% 29.60 in 10.0 mi WSW 15.0 mph 24.2 mph N/A   Clear
2:55 PM 59.0 °F - 26.6 °F 29% 29.60 in 10.0 mi West 16.1 mph 27.6 mph N/A   Clear
3:15 PM 60.8 °F - 26.6 °F 27% 29.60 in 10.0 mi West 13.8 mph 26.5 mph N/A   Clear
3:35 PM 59.0 °F - 26.6 °F 29% 29.60 in 10.0 mi WSW 15.0 mph 25.3 mph N/A   Clear
3:55 PM 60.8 °F - 26.6 °F 27% 29.60 in 10.0 mi West 15.0 mph 21.9 mph N/A   Clear
4:15 PM 60.8 °F - 26.6 °F 27% 29.60 in 10.0 mi WSW 15.0 mph 25.3 mph N/A   Clear
4:35 PM 60.8 °F - 26.6 °F 27% 29.61 in 10.0 mi West 13.8 mph 23.0 mph N/A   Clear
4:55 PM 60.8 °F - 26.6 °F 27% 29.62 in 10.0 mi WSW 15.0 mph 24.2 mph N/A   Clear
5:15 PM 59.0 °F - 26.6 °F 29% 29.62 in 10.0 mi WSW 19.6 mph 27.6 mph N/A   Clear
5:55 PM 57.2 °F - 24.8 °F 29% 29.64 in 10.0 mi West 12.7 mph 19.6 mph N/A   Clear
6:15 PM 57.2 °F - 26.6 °F 31% 29.65 in 10.0 mi West 10.4 mph 19.6 mph N/A   Scattered Clouds
6:55 PM 57.2 °F - 24.8 °F 29% 29.67 in 10.0 mi West 10.4 mph - N/A   Scattered Clouds
7:15 PM 55.4 °F - 24.8 °F 31% 29.68 in 10.0 mi West 6.9 mph - N/A   Clear
7:35 PM 55.4 °F - 24.8 °F 31% 29.69 in 10.0 mi WSW 4.6 mph - N/A   Scattered Clouds
7:55 PM 53.6 °F - 26.6 °F 35% 29.70 in 10.0 mi Calm Calm - N/A   Partly Cloudy
8:15 PM 53.6 °F - 26.6 °F 35% 29.70 in 10.0 mi WSW 5.8 mph - N/A   Clear
8:35 PM 53.6 °F - 24.8 °F 33% 29.71 in 10.0 mi WSW 6.9 mph - N/A   Clear
8:55 PM 53.6 °F - 23.0 °F 30% 29.71 in 10.0 mi WSW 10.4 mph - N/A   Clear
9:15 PM 53.6 °F - 23.0 °F 30% 29.72 in 10.0 mi West 11.5 mph - N/A   Clear
9:35 PM 53.6 °F - 23.0 °F 30% 29.73 in 10.0 mi WSW 8.1 mph - N/A   Clear
9:55 PM 51.8 °F - 23.0 °F 33% 29.74 in 10.0 mi WSW 8.1 mph - N/A   Clear
10:15 PM 51.8 °F - 23.0 °F 33% 29.75 in 10.0 mi WSW 8.1 mph - N/A   Clear
10:35 PM 51.8 °F - 23.0 °F 33% 29.75 in 10.0 mi West 8.1 mph - N/A   Clear
10:55 PM 51.8 °F - 23.0 °F 33% 29.76 in 10.0 mi WSW 6.9 mph - N/A   Clear
11:15 PM 51.8 °F - 23.0 °F 33% 29.75 in 10.0 mi West 6.9 mph - N/A   Clear
11:35 PM 51.8 °F - 24.8 °F 35% 29.76 in 10.0 mi West 6.9 mph - N/A   Clear
11:55 PM 50.0 °F - 24.8 °F 37% 29.76 in 10.0 mi WSW 9.2 mph - N/A   Clear